COSMOS 1275 DEB

Satellite information

Favourite Embed

Satellite Type and Status

DEBRISIN ORBIT

Key statistics

Satellite COSMOS 1275 DEB at a glance.

Uptime

16263

Days in orbit

Revolutions

≈ 13.9

Per day

Orbit

LEO

Low Earth Orbit

Inclination

83.2

Latest

Satellite identification and parameters

Extended collection of information and parameters for COSMOS 1275 DEB.

Object identification

Identified? True

Debris? True

Object name: COSMOS 1275 DEB

International designator: 1981-053MA

Object number (NORAD): 18640

Object ID (CCSDS): 18640

Country: COMMONWEALTH OF INDEPENDENT STATES (CIS)

Current information (Y/N): Y

RCS size: SMALL

Orbital parameters

Period: 103.812 minutes

Inclination: 83.2051 deg

SMA: 7316.887 km

Apoapsis: 1000.559 km

Periapsis: 876.945 km

RAAN: 216.5318 deg

Eccentricy: 0.0084472

Argument of periapsis: 65.8661 deg

Mean anomaly: 86.7797 deg

Mean motion: 13.87117472 rev/day

Mean motion (dot): 0.00002302 rev/day2

B* drag term: 0.0018957047 1/REarth

Two-line elements (TLE)

Creation date: Dec. 12, 2025, 10:14 a.m.

Reference frame: TEME

Reference center: EARTH

Epoch: Dec. 12, 2025, 3:07 a.m. UTC

TLE line 0: 0 COSMOS 1275 DEB

TLE line 1: 1 18640U 81053MA 25346.13030203 .00002302 00000-0 18957-2 0 9997

TLE line 2: 2 18640 83.2051 216.5318 0084472 65.8661 86.7797 13.87117472 35837

Live tracking on map

Real-time ground track for satellite COSMOS 1275 DEB.

In-orbit conjunctions

A list of the most updated potential collisions computed for object COSMOS 1275 DEB.

Target Orbit TCA Probability of collision Miss distance Type
FENGYUN 1C DEB SSO 2025-02-07 04:35:21 0.0003977449 50.0 (m) DEBRIS
CZ-6A DEB LEO 2024-10-21 02:55:51 0.0002663729 197.0 (m) DEBRIS
FENGYUN 1C DEB SSO 2024-08-07 03:49:26 0.0002215642 47.0 (m) DEBRIS
THORAD AGENA D DEB SSO 2024-06-06 04:09:17 0.000116236 126.0 (m) DEBRIS

Associated space launch

Navigation satellite providing location information for the Tsiklon-B navigation system

COSMOS 1275 DEB was lifted into orbit during the mission ‘Kosmos-3M | Parus 27’, on board a Kosmos-3M space rocket.

The launch took place on June 4, 1981, 3:41 p.m. from 132/2.

For more information about the launch, click the button.

Launch to space Kosmos-3M | Parus 27
Kosmos-3M | Parus 27

Agency: N/A

Status: Launch Successful

Launch date: June 4, 1981, 3:41 p.m. UTC

Rocket: Kosmos-3M

Launch pad: 132/2

Location: Plesetsk Cosmodrome, Russian Federation

...

Latest news about this satellite

There are no fresh news available about this satellite. Check back as we update our databases every day.


Newsletter sign-up

Weekly statistics, charts and insights to help you stay on top of the space industry.